Date String (YYYY-MM-DD hh:mm:ss) UTC,Instrument flags,Ambient pressure (hPa),Sample flow (lpm),Bypass flow (lpm),Sample temperature (°C),Ambient temperature (°C),ASC tube jacket temperature (°C),LED temperature (°C),Box temperature (°C),Sample RH (%),Span deviation,Mass concentration (μg/m³),Mass concentration (μg/m³),Mass concentration (μg/m³)
DateTimeUTC,F1_M11,P_M11,Q1_M11,Q2_M11,T1_M11,T2_M11,T3_M11,T4_M11,T5_M11,U1_M11,ZSPAN_M11,X0_M11,X2_M11,X1_M11
2022-09-03 09:00:00,,0834.6,5.00,0.00,30.0,29.0,00.0,38.7,31.9,20.4,0000.0,0007.78,0003.76,0003.24
2022-09-03 09:01:00,,0834.7,5.00,0.00,30.1,29.1,00.0,38.8,32.0,20.3,0000.0,0008.19,0003.78,0003.26
2022-09-03 09:02:00,,0834.6,5.00,0.00,30.1,29.1,00.0,38.8,32.0,20.3,0000.0,0008.70,0003.82,0003.27
2022-09-03 09:03:00,,0834.7,5.00,0.00,30.1,29.1,00.0,38.8,32.0,20.2,0000.0,0009.19,0003.94,0003.30
2022-09-03 09:04:00,,0834.7,5.00,0.00,30.1,29.2,00.0,38.8,32.0,20.4,0000.0,0009.90,0004.03,0003.33
2022-09-03 09:05:00,,0834.7,5.00,0.00,30.2,29.2,00.0,38.8,32.0,20.3,0000.0,0010.13,0004.08,0003.34
2022-09-03 09:06:00,,0834.7,5.00,0.00,30.2,29.2,00.0,38.9,32.1,20.3,0000.0,0009.92,0004.11,0003.36
2022-09-03 09:07:00,,0834.7,5.01,0.00,30.2,29.3,00.0,38.9,32.1,20.3,0000.0,0010.10,0004.10,0003.38
2022-09-03 09:08:00,,0834.7,4.98,0.00,30.2,29.3,00.0,38.9,32.1,20.2,0000.0,0009.93,0004.14,0003.39
2022-09-03 09:09:00,,0834.7,5.01,0.00,30.3,29.3,00.0,39.0,32.1,20.0,0000.0,0009.88,0004.15,0003.41
2022-09-03 09:10:00,,0834.7,4.99,0.00,30.3,29.3,00.0,39.0,32.2,20.0,0000.0,0009.83,0004.12,0003.42
2022-09-03 09:11:00,,0834.7,5.00,0.00,30.3,29.4,00.0,39.0,32.2,19.7,0000.0,0010.48,0004.17,0003.45
2022-09-03 09:12:00,,0834.7,5.01,0.00,30.3,29.4,00.0,39.0,32.2,19.4,0000.0,0010.96,0004.26,0003.49
2022-09-03 09:13:00,,0834.7,4.98,0.00,30.4,29.4,00.0,39.1,32.2,19.4,0000.0,0010.78,0004.32,0003.54
2022-09-03 09:14:00,,0834.7,5.01,0.00,30.4,29.4,00.0,39.1,32.3,19.4,0000.0,0010.75,0004.37,0003.59
2022-09-03 09:15:00,,0834.7,4.99,0.00,30.4,29.5,00.0,39.1,32.3,19.4,0000.0,0010.37,0004.44,0003.64
2022-09-03 09:16:00,,0834.7,5.01,0.00,30.4,29.5,00.0,39.1,32.3,19.4,0000.0,0010.36,0004.49,0003.68
2022-09-03 09:17:00,,0834.7,5.01,0.00,30.5,29.5,00.0,39.2,32.3,19.4,0000.0,0010.48,0004.55,0003.72
2022-09-03 09:18:00,,0834.7,4.98,0.00,30.5,29.1,00.0,39.2,32.3,19.4,0000.0,0010.12,0004.60,0003.76
2022-09-03 09:19:00,,0834.7,5.02,0.00,30.5,27.7,00.0,39.2,32.2,19.4,0000.0,0009.97,0004.58,0003.81
2022-09-03 09:20:00,,0834.7,4.99,0.00,30.4,27.1,00.0,39.1,32.1,19.5,0000.0,0009.95,0004.61,0003.84
2022-09-03 09:21:00,,0834.6,5.00,0.00,30.3,27.3,00.0,39.1,32.0,19.5,0000.0,0009.91,0004.62,0003.87
2022-09-03 09:22:00,,0834.7,5.00,0.00,30.2,27.6,00.0,39.0,31.9,19.5,0000.0,0009.25,0004.62,0003.88
2022-09-03 09:23:00,,0834.7,4.98,0.00,30.2,27.9,00.0,39.0,31.9,19.5,0000.0,0008.56,0004.59,0003.89
2022-09-03 09:24:00,,0834.7,5.01,0.00,30.2,28.1,00.0,39.0,31.9,19.5,0000.0,0008.17,0004.55,0003.89
2022-09-03 09:25:00,,0834.7,5.00,0.00,30.2,28.4,00.0,39.0,31.9,19.5,0000.0,0008.13,0004.51,0003.90
2022-09-03 09:26:00,,0834.7,5.00,0.00,30.2,28.5,00.0,39.0,31.9,19.6,0000.0,0008.52,0004.44,0003.91
2022-09-03 09:27:00,,0834.7,5.01,0.00,30.2,28.7,00.0,39.0,31.9,19.6,0000.0,0008.69,0004.44,0003.92
2022-09-03 09:28:00,,0834.7,5.00,0.00,30.2,28.8,00.0,39.0,32.0,19.6,0000.0,0009.04,0004.44,0003.94
2022-09-03 09:29:00,,0834.7,5.00,0.00,30.2,28.9,00.0,39.0,32.0,19.7,0000.0,0008.70,0004.43,0003.95
2022-09-03 09:30:00,,0834.7,4.99,0.00,30.2,28.9,00.0,39.0,32.0,19.8,0000.0,0008.77,0004.49,0003.97
2022-09-03 09:31:00,,0834.6,5.00,0.00,30.2,29.0,00.0,39.0,32.0,19.9,0000.0,0009.00,0004.60,0004.04
2022-09-03 09:32:00,,0834.7,5.01,0.00,30.2,29.1,00.0,39.0,32.0,19.9,0000.0,0009.19,0004.73,0004.13
2022-09-03 09:33:00,,0834.7,4.99,0.00,30.2,29.1,00.0,39.0,32.1,19.9,0000.0,0009.40,0004.83,0004.18
2022-09-03 09:34:00,,0834.7,5.01,0.00,30.3,29.2,00.0,39.0,32.1,19.9,0000.0,0009.43,0004.88,0004.24
2022-09-03 09:35:00,,0834.7,4.99,0.00,30.3,29.2,00.0,39.0,32.1,19.7,0000.0,0009.81,0004.97,0004.30
2022-09-03 09:36:00,,0834.7,4.99,0.00,30.3,29.2,00.0,39.0,32.1,19.9,0000.0,0010.27,0005.09,0004.38
2022-09-03 09:37:00,,0834.7,5.01,0.00,30.3,29.3,00.0,39.1,32.2,19.7,0000.0,0009.91,0005.17,0004.45
2022-09-03 09:38:00,,0834.7,4.99,0.00,30.4,29.3,00.0,39.1,32.2,19.9,0000.0,0010.05,0005.24,0004.50
2022-09-03 09:39:00,,0834.7,5.01,0.00,30.4,29.3,00.0,39.1,32.2,20.0,0000.0,0009.73,0005.31,0004.58
2022-09-03 09:40:00,,0834.7,4.99,0.00,30.4,29.4,00.0,39.1,32.2,19.9,0000.0,0009.80,0005.37,0004.64
2022-09-03 09:41:00,,0834.7,5.01,0.00,30.4,29.4,00.0,39.1,32.3,19.7,0000.0,0009.88,0005.38,0004.65
2022-09-03 09:42:00,,0834.6,5.00,0.00,30.4,29.0,00.0,39.2,32.2,19.6,0000.0,0009.72,0005.32,0004.64
2022-09-03 09:43:00,,0834.7,5.00,0.00,30.4,27.5,00.0,39.1,32.0,19.6,0000.0,0009.75,0005.28,0004.60
2022-09-03 09:44:00,,0834.7,4.99,0.00,30.3,27.0,00.0,39.1,32.0,19.7,0000.0,0009.74,0005.28,0004.59
2022-09-03 09:45:00,,0834.7,4.99,0.00,30.2,27.1,00.0,39.0,31.9,19.7,0000.0,0009.79,0005.26,0004.55
2022-09-03 09:46:00,,0834.7,5.01,0.00,30.2,27.5,00.0,39.0,31.8,19.8,0000.0,0009.54,0005.21,0004.51
2022-09-03 09:47:00,,0834.7,5.01,0.00,30.1,27.8,00.0,39.0,31.7,19.9,0000.0,0009.10,0005.12,0004.45
2022-09-03 09:48:00,,0834.7,4.99,0.00,30.1,28.0,00.0,39.0,31.8,19.9,0000.0,0009.31,0005.09,0004.41
2022-09-03 09:49:00,,0834.7,5.01,0.00,30.1,28.2,00.0,38.9,31.8,19.8,0000.0,0009.60,0005.06,0004.39
2022-09-03 09:50:00,,0834.6,5.01,0.00,30.1,28.4,00.0,38.9,31.8,19.8,0000.0,0009.83,0005.07,0004.37
2022-09-03 09:51:00,,0834.7,5.01,0.00,30.1,28.6,00.0,38.9,31.8,19.9,0000.0,0010.15,0005.14,0004.37
2022-09-03 09:52:00,,0834.7,5.01,0.00,30.1,28.7,00.0,38.9,31.9,19.8,0000.0,0010.12,0005.18,0004.41
2022-09-03 09:53:00,,0834.7,4.98,0.00,30.1,28.8,00.0,38.9,31.9,19.7,0000.0,0010.39,0005.24,0004.42
2022-09-03 09:54:00,,0834.7,5.00,0.00,30.1,28.8,00.0,38.9,31.9,19.7,0000.0,0011.24,0005.26,0004.43
2022-09-03 09:55:00,,0834.6,5.01,0.00,30.1,28.9,00.0,38.9,32.0,19.7,0000.0,0011.20,0005.24,0004.44
2022-09-03 09:56:00,,0834.7,4.99,0.00,30.2,28.9,00.0,38.9,32.0,19.7,0000.0,0011.31,0005.26,0004.47
2022-09-03 09:57:00,,0834.7,5.01,0.00,30.2,29.0,00.0,39.0,32.0,19.6,0000.0,0012.10,0005.32,0004.50
2022-09-03 09:58:00,,0834.7,5.01,0.00,30.2,29.0,00.0,39.0,32.0,19.5,0000.0,0013.15,0005.38,0004.53
2022-09-03 09:59:00,,0834.7,4.98,0.00,30.2,29.1,00.0,39.0,32.0,19.4,0000.0,0012.80,0005.40,0004.55
